[[{"header":{"parameterUnit":"m.s-1","parameterCategory":1,"la1":30.2991,"la2":30.254,"lo1":-89.0895,"lo2":-89.0444,"dy":0.0017,"dx":0.0017,"nx":28,"ny":28,"refTime":"2024-04-29T03:00:00:Z","depth":0,"parameterNumber":2,"parameterNumberName":"U-component_of_WINDS"},"data":[0,0,0,0,0,0,0,0,0,0,0,0,0,0,0,0,0,0,0,0,0,0,0,0,0,0,0,0,0,0,0,0,0,0,0,0,0,0,0,0,0,0,0,0,0,0,0,0,0,0,0,0,0,0,0,0,0,0,1.5315,1.5316,0,1.5447,1.5449,1.545,1.5503,1.5503,1.5502,1.5502,1.5637,1.5641,1.5645,0,0,0,0,0,0,0,0,0,0,0,0,0,1.5109,1.5112,1.5315,1.5316,1.5318,1.5447,1.5449,1.545,1.5503,1.5503,1.5502,1.5502,1.5636,1.564,1.5645,0,0,0,0,0,0,0,0,0,0,0,0,0,1.5215,1.5113,1.5314,1.536,1.5365,1.5446,1.5449,1.5451,1.5503,1.5503,1.5502,1.5502,1.5634,1.564,1.5646,1.5691,0,0,1.5664,1.5666,0,0,0,0,0,0,0,0,1.5209,1.5223,1.5352,1.5357,1.5363,1.5458,1.5426,1.5532,1.5503,1.5451,1.5502,1.5502,1.5578,1.5588,1.5614,1.5698,1.5704,1.5664,1.5668,1.567,1.5672,0,0,0,0,0,0,0,1.5202,1.5217,1.5367,1.5353,1.536,1.5374,1.5388,1.5446,1.5515,1.5455,1.546,1.5474,1.5581,1.5608,1.5618,1.5706,1.5664,1.5669,1.5673,1.5675,1.5835,1.5836,0,0,0,0,0,0,1.5187,1.5211,1.5363,1.5371,1.5283,1.5378,1.5394,1.5428,1.5515,1.5528,1.5475,1.5476,1.5599,1.5611,1.5623,1.5683,1.567,1.5676,1.5679,1.5834,1.5835,1.5836,0,0,0,0,0,0,1.5182,1.52,1.5358,1.5292,1.5313,1.5382,1.542,1.5431,1.5458,1.553,1.5542,1.549,1.5599,1.5615,1.5674,1.5688,1.5678,1.5684,1.5834,1.5835,1.5836,1.5803,0,0,0,0,0,0,1.5176,1.5198,1.5215,1.5292,1.5317,1.5406,1.542,1.5434,1.5468,1.5472,1.5547,1.5559,1.56,1.5665,1.568,1.5696,1.5688,1.5833,1.5834,1.5835,1.5803,1.5803,1.5803,0,0,0,0,0,1.5168,1.52,1.5216,1.5234,1.534,1.5407,1.5421,1.5467,1.5469,1.5488,1.5534,1.5557,1.5685,1.5671,1.5688,1.5706,1.5832,1.5834,1.5835,1.5803,1.5803,1.5803,0,0,0,0,0,0,1.5123,1.5211,1.5229,1.5287,1.5339,1.5416,1.5441,1.5465,1.5517,1.5518,1.5573,1.559,1.5645,1.5682,1.5665,1.5756,1.576,1.5765,1.573,1.573,1.573,1.572,1.5693,0,0,0,0,0,1.5119,1.5166,1.5241,1.5285,1.5311,1.5371,1.5402,1.5433,1.5489,1.5511,1.5562,1.5615,1.5668,1.5701,1.5753,1.5809,1.5827,1.583,1.583,1.5829,1.5833,1.5866,1.5869,1.5842,1.5842,1.5842,0,0,1.5113,1.5167,1.5193,1.5277,1.5321,1.5369,1.5389,1.5439,1.5475,1.5519,1.5579,1.5618,1.5681,1.574,1.5768,1.5772,1.5844,1.5831,1.583,1.5834,1.5868,1.5871,1.5873,1.5843,1.5843,1.5843,0,0,1.5126,1.5171,1.5213,1.5258,1.5324,1.5365,1.5375,1.5449,1.5476,1.5537,1.5572,1.5616,1.5705,1.5749,1.5783,1.5815,1.5838,1.5831,1.5829,1.5861,1.5863,1.5865,1.5878,1.5881,1.5834,1.5834,1.5834,0,1.5109,1.5183,1.5232,1.528,1.5317,1.536,1.5403,1.5443,1.5523,1.5548,1.5551,1.5665,1.5711,1.5781,1.5789,1.5815,1.5828,1.5822,1.5859,1.5862,1.5865,1.5877,1.5881,1.5833,1.5833,1.5833,1.5833,0,1.5159,1.521,1.5236,1.5313,1.5353,1.5398,1.5455,1.5489,1.5517,1.5557,1.562,1.5677,1.5742,1.5761,1.5788,1.5835,1.5836,1.5848,1.5854,1.5865,1.5877,1.5882,1.5831,1.5831,1.5832,1.5832,0,0,1.5145,1.5251,1.526,1.5296,1.5374,1.5414,1.5462,1.5526,1.5555,1.5609,1.5651,1.5726,1.5739,1.5778,1.5811,1.5839,1.5862,1.5849,1.5852,1.585,1.5919,1.5908,1.5913,1.5879,1.588,1.588,1.5913,0,1.5169,1.5257,1.5304,1.5372,1.542,1.5463,1.5505,1.5557,1.5597,1.5643,1.5687,1.574,1.5752,1.5776,1.5806,1.5853,1.5877,1.5851,1.5919,1.592,1.5901,1.5919,1.5908,1.5937,1.5918,1.5919,1.592,0,1.5208,1.5263,1.5336,1.541,1.5432,1.5469,1.5532,1.5576,1.5637,1.5664,1.5708,1.5741,1.5794,1.5796,1.587,1.5852,1.5883,1.591,1.5912,1.592,1.592,1.5928,1.5947,1.5951,1.5928,1.5927,1.5927,0,1.5191,1.5283,1.534,1.5369,1.5456,1.5482,1.5519,1.558,1.5616,1.5671,1.5696,1.5756,1.5789,1.5836,1.5885,1.5882,1.5955,1.5961,1.5979,1.5978,1.5992,1.5991,1.6016,1.6012,1.6012,1.6012,1.6011,0,1.5212,1.5256,1.5333,1.5368,1.5418,1.5472,1.552,1.5561,1.5615,1.5658,1.5699,1.5739,1.5801,1.5849,1.5888,1.5944,1.5959,1.5983,1.5992,1.5979,1.5976,1.5999,1.5999,1.6013,1.6013,1.6012,1.6012,0,1.5202,1.5256,1.532,1.5398,1.5419,1.5452,1.5519,1.5555,1.5597,1.5652,1.5668,1.5733,1.5792,1.5846,1.5924,1.595,1.6008,1.602,1.5987,1.5992,1.6008,1.6006,1.6049,1.6058,1.6047,1.6047,1.6047,0,1.5212,1.5247,1.5329,1.5361,1.5398,1.545,1.5487,1.5542,1.5579,1.5652,1.5679,1.5741,1.5793,1.5886,1.5941,1.6001,1.6015,1.6027,1.6025,1.6011,1.6016,1.6013,1.6017,1.6026,1.6026,1.6025,1.6025,0,1.5224,1.525,1.5302,1.5364,1.5408,1.546,1.5512,1.5537,1.5602,1.5642,1.5703,1.5743,1.5824,1.5885,1.5952,1.5991,1.6019,1.6026,1.6033,1.602,1.5999,1.6011,1.5985,1.6024,1.6024,1.6025,1.6025,1.6025,1.5225,1.5258,1.5322,1.5379,1.5425,1.5474,1.5511,1.5559,1.561,1.568,1.571,1.5772,1.5834,1.5926,1.5966,1.6015,1.6021,1.6032,1.6035,1.6036,1.6034,1.5992,1.6028,1.6028,1.6028,1.6028,1.6028,0,1.524,1.5283,1.5336,1.5409,1.5454,1.5478,1.5538,1.5574,1.5628,1.5684,1.5735,1.5806,1.5866,1.5926,1.599,1.6018,1.6033,1.6033,1.6031,1.604,1.6025,1.6012,1.602,1.602,1.602,1.602,1.602,1.602,1.5253,1.5311,1.5344,1.5425,1.5468,1.553,1.5562,1.5608,1.5652,1.5729,1.578,1.5819,1.5877,1.5945,1.6002,1.6018,1.6039,1.6036,1.6056,1.6041,1.6041,1.6041,1.6029,1.604,1.604,1.6067,1.6067,1.6067]},{"header":{"parameterUnit":"m.s-1","parameterCategory":1,"la1":30.2991,"la2":30.254,"lo1":-89.0895,"lo2":-89.0444,"dy":0.0017,"dx":0.0017,"nx":28,"ny":28,"refTime":"2024-04-29T03:00:00:Z","depth":0,"parameterNumber":3,"parameterNumberName":"V-component_of_WINDS"},"data":[0,0,0,0,0,0,0,0,0,0,0,0,0,0,0,0,0,0,0,0,0,0,0,0,0,0,0,0,0,0,0,0,0,0,0,0,0,0,0,0,0,0,0,0,0,0,0,0,0,0,0,0,0,0,0,0,0,0,2.0348,2.0349,0,2.045,2.0451,2.0452,2.0426,2.0424,2.0422,2.042,2.0528,2.0533,2.0538,0,0,0,0,0,0,0,0,0,0,0,0,0,2.0132,2.0137,2.0348,2.035,2.0351,2.045,2.0451,2.0453,2.0427,2.0424,2.0422,2.0419,2.0527,2.0532,2.0538,0,0,0,0,0,0,0,0,0,0,0,0,0,2.023,2.0138,2.0348,2.035,2.0351,2.045,2.0451,2.0453,2.0427,2.0424,2.0421,2.0418,2.0525,2.0532,2.0539,2.0644,0,0,2.0561,2.0564,0,0,0,0,0,0,0,0,2.0224,2.0237,2.0348,2.035,2.0351,2.0422,2.0415,2.0517,2.0428,2.0398,2.042,2.0417,2.0496,2.0505,2.0531,2.0649,2.0653,2.0561,2.0566,2.0569,2.0571,0,0,0,0,0,0,0,2.0217,2.0233,2.0389,2.035,2.0352,2.0346,2.0356,2.0434,2.0463,2.0401,2.0399,2.0411,2.0496,2.0524,2.0533,2.0655,2.0561,2.0567,2.0572,2.0575,2.0859,2.0862,0,0,0,0,0,0,2.0209,2.0228,2.0385,2.0392,2.0279,2.0352,2.0364,2.0403,2.0462,2.0468,2.0414,2.0409,2.0513,2.0525,2.0537,2.066,2.0569,2.0575,2.0579,2.0856,2.086,2.0863,0,0,0,0,0,0,2.0205,2.0223,2.0381,2.0309,2.0329,2.0359,2.0403,2.0406,2.0434,2.0472,2.0477,2.0437,2.0511,2.0527,2.0616,2.0664,2.0579,2.0585,2.0852,2.0857,2.0862,2.091,0,0,0,0,0,0,2.0198,2.0222,2.0262,2.031,2.0333,2.0459,2.0406,2.041,2.0446,2.0442,2.0495,2.0501,2.051,2.0605,2.0623,2.0672,2.0591,2.0848,2.0854,2.086,2.0904,2.0916,2.0926,0,0,0,0,0,2.0191,2.0273,2.0264,2.0283,2.0383,2.0461,2.0474,2.0482,2.045,2.049,2.0514,2.0499,2.0656,2.0615,2.0634,2.0686,2.0845,2.0853,2.086,2.0899,2.0914,2.0926,0,0,0,0,0,0,2.0233,2.028,2.027,2.0371,2.0412,2.0457,2.0508,2.0498,2.055,2.0544,2.0553,2.0565,2.0655,2.068,2.0633,2.0789,2.0746,2.0757,2.0769,2.0783,2.0794,2.0785,2.0597,0,0,0,0,0,2.0253,2.0312,2.035,2.0435,2.0456,2.0478,2.0513,2.0515,2.0559,2.0576,2.0607,2.065,2.0709,2.0748,2.0804,2.0908,2.0917,2.0953,2.0964,2.0972,2.0982,2.1035,2.105,2.0888,2.0888,2.0887,0,0,2.0297,2.033,2.0367,2.0444,2.0476,2.0536,2.0494,2.056,2.0605,2.0587,2.0672,2.0695,2.0744,2.084,2.0884,2.0863,2.1029,2.0982,2.0988,2.0993,2.1044,2.1059,2.1073,2.0893,2.0892,2.0891,0,0,2.0406,2.0438,2.051,2.0543,2.0591,2.0605,2.0622,2.0668,2.0682,2.0767,2.0753,2.0807,2.0909,2.0943,2.0974,2.1092,2.108,2.1111,2.1167,2.1219,2.1231,2.1243,2.1282,2.1297,2.112,2.112,2.1121,0,2.0455,2.0544,2.0549,2.0616,2.0649,2.0633,2.0706,2.0738,2.0803,2.0826,2.0802,2.0926,2.0959,2.106,2.1088,2.1115,2.1134,2.1104,2.1229,2.124,2.1251,2.1289,2.1304,2.1124,2.1123,2.1123,2.1123,0,2.06,2.0662,2.0715,2.0774,2.0814,2.0884,2.0899,2.0938,2.0936,2.0952,2.1037,2.1075,2.1137,2.1161,2.1162,2.1262,2.1248,2.1226,2.1183,2.127,2.1305,2.132,2.1128,2.1127,2.1126,2.1125,0,0,2.074,2.0799,2.0818,2.0843,2.0894,2.0942,2.101,2.1068,2.1101,2.1146,2.1201,2.1286,2.1265,2.13,2.1304,2.1349,2.1437,2.1322,2.1323,2.134,2.1546,2.156,2.1577,2.1429,2.1432,2.1434,2.1541,0,2.0852,2.0969,2.0974,2.1082,2.1137,2.1122,2.118,2.1218,2.1234,2.1284,2.1302,2.1361,2.133,2.1351,2.1395,2.1417,2.1478,2.1409,2.148,2.1482,2.1466,2.1596,2.1613,2.1712,2.1556,2.1558,2.156,0,2.0999,2.1044,2.1156,2.1195,2.1219,2.1271,2.1323,2.1372,2.1413,2.1421,2.1458,2.1454,2.1522,2.1477,2.157,2.1523,2.1552,2.1567,2.1571,2.1576,2.1525,2.1604,2.1745,2.1759,2.1582,2.158,2.1579,0,2.1086,2.1176,2.1253,2.1276,2.1324,2.1361,2.1383,2.1421,2.1454,2.15,2.1522,2.1576,2.1605,2.1647,2.1657,2.1623,2.1749,2.1705,2.1756,2.1756,2.1783,2.1781,2.1928,2.1805,2.1805,2.1805,2.1804,0,2.1209,2.1278,2.1293,2.134,2.1416,2.1421,2.1495,2.1515,2.1548,2.1598,2.159,2.1637,2.1649,2.1698,2.1707,2.1781,2.1795,2.1803,2.1804,2.1803,2.1801,2.1821,2.1814,2.1809,2.1808,2.1807,2.1806,0,2.1319,2.1332,2.1415,2.1453,2.1464,2.1517,2.1549,2.1594,2.1608,2.1672,2.1688,2.171,2.1768,2.1782,2.1852,2.1857,2.1944,2.194,2.1929,2.1928,2.1978,2.1972,2.2142,2.2163,2.2028,2.2029,2.203,0,2.1396,2.1448,2.149,2.1522,2.1544,2.1597,2.163,2.1637,2.1672,2.172,2.1759,2.1815,2.186,2.1953,2.1975,2.2028,2.2023,2.2079,2.2031,2.2027,2.2021,2.2017,2.2021,2.2088,2.2089,2.2091,2.2092,0,2.1531,2.1533,2.1581,2.163,2.1669,2.1708,2.1746,2.1773,2.1784,2.1824,2.1881,2.1916,2.1985,2.204,2.2092,2.2115,2.2105,2.2106,2.212,2.2119,2.2109,2.2112,2.1952,2.2102,2.2101,2.21,2.21,2.2099,2.1625,2.1668,2.1703,2.1756,2.1784,2.1818,2.1861,2.1879,2.1927,2.1982,2.1983,2.2045,2.2082,2.215,2.2176,2.2224,2.2207,2.2228,2.2233,2.2238,2.2241,2.2103,2.2234,2.2234,2.2233,2.2233,2.2233,0,2.1756,2.1777,2.1825,2.1876,2.1916,2.1902,2.1942,2.1977,2.2031,2.2065,2.2109,2.2173,2.2226,2.2251,2.2303,2.2337,2.2333,2.235,2.2347,2.2351,2.2255,2.2236,2.2352,2.2351,2.2351,2.2351,2.2351,2.2351,2.1829,2.1901,2.1907,2.1993,2.2013,2.2072,2.2096,2.2127,2.2154,2.2226,2.2269,2.2284,2.2315,2.2368,2.2415,2.2421,2.2439,2.2458,2.2462,2.2371,2.2359,2.2347,2.2329,2.2463,2.2463,2.2554,2.2555,2.2555]}]]